Simultaneous Nadir Overpasses (SNOs) Predictions

Prediction of SNOs between GOES-16 and METOP-A Satellite Orbit:

Table of predicted SNOs for the next 14.0 days since TLE Epoch: 1/9/2021
Index Date Time (GOES-16) GOES-16 Lat,Lon METOP-A Lat,Lon Distance(km) Time Diff (sec)
1 01/09/2021 13:20:20 0.00, -75.20 -0.12, -74.76 51.01 80
2 01/11/2021 01:42:00 -0.00, -75.17 -0.92, -79.39 480.19 80
3 01/12/2021 01:18:41 -0.00, -75.17 0.18, -74.41 87.00 80
4 01/13/2021 13:40:12 0.00, -75.20 0.86, -79.00 433.23 80
5 01/14/2021 13:16:53 -0.00, -75.21 -0.24, -74.03 134.43 80
6 01/16/2021 01:38:34 -0.00, -75.19 -0.74, -78.67 395.24 80
7 01/17/2021 01:15:15 0.00, -75.21 0.36, -73.69 173.02 80
8 01/18/2021 13:36:46 -0.00, -75.26 0.68, -78.29 345.48 80
9 01/19/2021 13:13:26 -0.00, -75.27 -0.42, -73.31 223.25 80
10 01/21/2021 01:35:07 -0.00, -75.27 -0.61, -77.94 304.86 80
11 01/22/2021 01:11:47 0.00, -75.29 0.50, -72.96 264.14 80
